^^
North Bend WA Weather Station Historical Data
Daily Summary for December 06, 2021 Units:  English    Metric   Both
Daily Weekly Monthly Yearly Custom
  High: Low: Average:
Temperature: 39 °F 36 °F 37.3 °F
Dew Point: 38 °F 34 °F 35.7 °F
Humidity: 98% 85% 94%
Wind Speed: 7mph 0mph 3.1mph
Wind Gust: 15mph - -
Wind- - SE
Pressure: 30.31 in 30.04 in -
Precipitation: 0.09 in    
Historical Graphs
 
 
Tabular Data for December 06, 2021
Time Temperature Dew Point Pressure Wind Wind Speed Wind Gust Humidity Rainfall Rate (Hourly) solar
00:04 38 °F 35 °F 30.31 in SE 5 mph 9 mph 86% 0 in 0 W/m2
00:09 38 °F 35 °F 30.31 in SE 3 mph 9 mph 85% 0 in 0 W/m2
00:14 38 °F 35 °F 30.3 in SE 3 mph 9 mph 86% 0 in 0 W/m2
00:19 38 °F 35 °F 30.3 in SE 4 mph 7 mph 86% 0 in 0 W/m2
00:24 39 °F 35 °F 30.3 in SE 4 mph 12 mph 85% 0 in 0 W/m2
00:29 39 °F 35 °F 30.29 in SSE 5 mph 12 mph 85% 0 in 0 W/m2
00:34 39 °F 35 °F 30.29 in SSE 5 mph 12 mph 86% 0 in 0 W/m2
00:39 39 °F 35 °F 30.29 in SSE 3 mph 12 mph 86% 0 in 0 W/m2
00:44 39 °F 35 °F 30.28 in SSE 4 mph 9 mph 86% 0 in 0 W/m2
00:49 38 °F 35 °F 30.28 in SSE 5 mph 12 mph 87% 0 in 0 W/m2
00:54 38 °F 35 °F 30.28 in SE 7 mph 12 mph 87% 0 in 0 W/m2
00:59 38 °F 35 °F 30.27 in SE 6 mph 13 mph 87% 0.01 in 0 W/m2
01:04 38 °F 35 °F 30.26 in SE 5 mph 13 mph 88% 0.01 in 0 W/m2
01:09 38 °F 35 °F 30.26 in SE 4 mph 9 mph 89% 0.01 in 0 W/m2
01:14 38 °F 35 °F 30.26 in SE 3 mph 12 mph 90% 0.01 in 0 W/m2
01:19 38 °F 35 °F 30.26 in SE 4 mph 12 mph 89% 0.01 in 0 W/m2
01:24 37 °F 35 °F 30.25 in SE 5 mph 10 mph 90% 0.01 in 0 W/m2
01:29 37 °F 35 °F 30.25 in SE 3 mph 10 mph 90% 0.01 in 0 W/m2
01:34 37 °F 35 °F 30.24 in SE 5 mph 12 mph 90% 0.01 in 0 W/m2
01:39 38 °F 35 °F 30.24 in SE 5 mph 12 mph 90% 0.01 in 0 W/m2
01:44 38 °F 35 °F 30.23 in SE 4 mph 10 mph 90% 0.01 in 0 W/m2
01:49 38 °F 35 °F 30.23 in ESE 2 mph 10 mph 90% 0.01 in 0 W/m2
01:54 38 °F 35 °F 30.23 in ESE 2 mph 6 mph 90% 0.01 in 0 W/m2
01:59 38 °F 35 °F 30.23 in SE 2 mph 6 mph 90% 0.01 in 0 W/m2
02:04 38 °F 35 °F 30.22 in SE 2 mph 6 mph 90% 0 in 0 W/m2
02:09 38 °F 35 °F 30.22 in SE 3 mph 5 mph 90% 0 in 0 W/m2
02:14 37 °F 35 °F 30.21 in SE 3 mph 6 mph 89% 0 in 0 W/m2
02:19 37 °F 35 °F 30.21 in SE 3 mph 6 mph 89% 0 in 0 W/m2
02:24 37 °F 35 °F 30.21 in ESE 1 mph 5 mph 89% 0 in 0 W/m2
02:29 37 °F 35 °F 30.21 in ESE 2 mph 8 mph 90% 0 in 0 W/m2
02:34 37 °F 35 °F 30.21 in E 2 mph 8 mph 90% 0 in 0 W/m2
02:39 37 °F 35 °F 30.21 in SE 1 mph 7 mph 91% 0.01 in 0 W/m2
02:44 37 °F 35 °F 30.21 in E 1 mph 7 mph 91% 0.01 in 0 W/m2
02:49 37 °F 35 °F 30.21 in Calm   2 mph 92% 0.01 in 0 W/m2
02:54 37 °F 35 °F 30.21 in ESE 1 mph 4 mph 93% 0.01 in 0 W/m2
02:59 37 °F 35 °F 30.2 in SE 2 mph 5 mph 93% 0.01 in 0 W/m2
03:04 37 °F 35 °F 30.2 in SE 3 mph 5 mph 94% 0.01 in 0 W/m2
03:09 37 °F 35 °F 30.19 in S 3 mph 8 mph 93% 0.01 in 0 W/m2
03:14 37 °F 35 °F 30.19 in SSE 4 mph 12 mph 93% 0.01 in 0 W/m2
03:19 37 °F 35 °F 30.19 in SE 4 mph 12 mph 93% 0.01 in 0 W/m2
03:24 37 °F 35 °F 30.19 in SE 3 mph 10 mph 93% 0.01 in 0 W/m2
03:29 37 °F 35 °F 30.18 in SSE 4 mph 12 mph 93% 0.01 in 0 W/m2
03:34 37 °F 35 °F 30.18 in SE 5 mph 12 mph 93% 0.01 in 0 W/m2
03:39 37 °F 35 °F 30.18 in SSE 4 mph 12 mph 93% 0.01 in 0 W/m2
03:44 37 °F 35 °F 30.18 in SE 4 mph 9 mph 93% 0 in 0 W/m2
03:49 37 °F 35 °F 30.18 in SE 3 mph 9 mph 93% 0 in 0 W/m2
03:54 37 °F 35 °F 30.17 in SE 4 mph 7 mph 93% 0 in 0 W/m2
03:59 37 °F 35 °F 30.17 in SSE 4 mph 9 mph 93% 0 in 0 W/m2
04:04 37 °F 35 °F 30.16 in SE 5 mph 10 mph 93% 0 in 0 W/m2
04:09 37 °F 35 °F 30.16 in SE 4 mph 10 mph 93% 0 in 0 W/m2
04:14 36 °F 35 °F 30.16 in SE 5 mph 12 mph 93% 0 in 0 W/m2
04:19 36 °F 35 °F 30.15 in SE 6 mph 13 mph 93% 0.01 in 0 W/m2
04:24 36 °F 35 °F 30.15 in SSE 6 mph 13 mph 94% 0.01 in 0 W/m2
04:29 36 °F 35 °F 30.15 in SSE 7 mph 15 mph 95% 0.02 in 0 W/m2
04:34 36 °F 35 °F 30.14 in SSE 5 mph 15 mph 95% 0.02 in 0 W/m2
04:39 36 °F 34 °F 30.13 in SSE 5 mph 12 mph 95% 0.02 in 0 W/m2
04:44 36 °F 35 °F 30.13 in SSE 5 mph 12 mph 95% 0.02 in 0 W/m2
04:49 36 °F 35 °F 30.12 in SE 6 mph 12 mph 96% 0.02 in 0 W/m2
04:54 36 °F 35 °F 30.12 in SE 5 mph 12 mph 96% 0.02 in 0 W/m2
04:59 36 °F 35 °F 30.11 in SE 6 mph 12 mph 96% 0.02 in 0 W/m2
05:04 36 °F 35 °F 30.11 in SSE 6 mph 14 mph 96% 0.02 in 0 W/m2
05:09 36 °F 35 °F 30.11 in SE 5 mph 14 mph 95% 0.02 in 0 W/m2
05:14 36 °F 35 °F 30.11 in ESE 3 mph 12 mph 95% 0.02 in 0 W/m2
05:19 37 °F 35 °F 30.11 in SE 5 mph 13 mph 95% 0.01 in 0 W/m2
05:24 37 °F 35 °F 30.1 in SSE 7 mph 14 mph 95% 0.01 in 0 W/m2
05:29 37 °F 36 °F 30.09 in SSE 6 mph 14 mph 96% 0.01 in 0 W/m2
05:34 37 °F 36 °F 30.09 in SE 6 mph 15 mph 95% 0 in 0 W/m2
05:39 37 °F 35 °F 30.09 in ESE 3 mph 15 mph 95% 0 in 0 W/m2
05:44 37 °F 35 °F 30.09 in SE 4 mph 9 mph 95% 0 in 0 W/m2
05:49 37 °F 35 °F 30.09 in SSE 5 mph 13 mph 95% 0 in 0 W/m2
05:54 37 °F 35 °F 30.1 in SSE 4 mph 13 mph 95% 0 in 0 W/m2
05:59 37 °F 35 °F 30.09 in ESE 2 mph 9 mph 94% 0 in 0 W/m2
06:04 37 °F 36 °F 30.09 in SE 2 mph 6 mph 95% 0 in 0 W/m2
06:09 37 °F 36 °F 30.09 in ESE 4 mph 6 mph 95% 0 in 0 W/m2
06:14 37 °F 36 °F 30.07 in SE 2 mph 5 mph 95% 0 in 0 W/m2
06:19 37 °F 36 °F 30.07 in SSE 1 mph 4 mph 96% 0 in 0 W/m2
06:24 37 °F 36 °F 30.07 in WNW 3 mph 9 mph 96% 0 in 0 W/m2
06:29 37 °F 36 °F 30.07 in NW 3 mph 9 mph 96% 0 in 0 W/m2
06:34 37 °F 36 °F 30.08 in SE 4 mph 7 mph 96% 0 in 0 W/m2
06:39 37 °F 36 °F 30.08 in ESE 2 mph 7 mph 96% 0.01 in 0 W/m2
06:44 37 °F 36 °F 30.08 in SE 3 mph 9 mph 96% 0.01 in 0 W/m2
06:49 37 °F 36 °F 30.08 in SE 1 mph 9 mph 96% 0.01 in 0 W/m2
06:54 37 °F 36 °F 30.08 in SE 2 mph 5 mph 96% 0.02 in 0 W/m2
06:59 37 °F 36 °F 30.08 in SE 2 mph 5 mph 97% 0.02 in 0 W/m2
07:04 37 °F 36 °F 30.08 in ESE 1 mph 3 mph 96% 0.02 in 0 W/m2
07:09 37 °F 36 °F 30.08 in SE 1 mph 4 mph 97% 0.02 in 0 W/m2
07:14 37 °F 36 °F 30.08 in SE 1 mph 4 mph 97% 0.02 in 0 W/m2
07:19 37 °F 36 °F 30.08 in Calm   2 mph 97% 0.02 in 0 W/m2
07:24 37 °F 36 °F 30.08 in ENE 1 mph 4 mph 97% 0.03 in 0 W/m2
07:29 37 °F 36 °F 30.08 in ESE 1 mph 4 mph 97% 0.03 in 0 W/m2
07:34 37 °F 36 °F 30.08 in SE 1 mph 3 mph 97% 0.03 in 0 W/m2
07:39 37 °F 36 °F 30.08 in SE 1 mph 4 mph 97% 0.03 in 0 W/m2
07:44 37 °F 36 °F 30.08 in ESE 1 mph 2 mph 97% 0.03 in 0 W/m2
07:49 37 °F 36 °F 30.07 in E 1 mph 4 mph 97% 0.03 in 0 W/m2
07:54 37 °F 36 °F 30.07 in SE 1 mph 4 mph 97% 0.02 in 0 W/m2
07:59 37 °F 36 °F 30.07 in SSE 2 mph 7 mph 97% 0.02 in 0 W/m2
08:04 37 °F 36 °F 30.07 in Calm   7 mph 97% 0.02 in 4.8 W/m2
08:09 37 °F 36 °F 30.07 in SE 1 mph 4 mph 97% 0.02 in 7.6 W/m2
08:14 37 °F 36 °F 30.07 in SE 3 mph 9 mph 97% 0.02 in 10.6 W/m2
08:19 37 °F 37 °F 30.07 in SSE 4 mph 9 mph 97% 0.02 in 10.6 W/m2
08:24 37 °F 37 °F 30.07 in SSE 2 mph 9 mph 97% 0.02 in 13.5 W/m2
08:29 37 °F 36 °F 30.06 in SE 4 mph 7 mph 97% 0.01 in 18 W/m2
08:34 37 °F 37 °F 30.06 in SE 3 mph 7 mph 97% 0.01 in 26.8 W/m2
08:39 37 °F 37 °F 30.06 in SE 2 mph 7 mph 97% 0.01 in 26.8 W/m2
08:44 37 °F 37 °F 30.06 in ESE 1 mph 5 mph 97% 0.01 in 26.6 W/m2
08:49 37 °F 37 °F 30.06 in E 1 mph 4 mph 97% 0 in 30.6 W/m2
08:54 37 °F 37 °F 30.05 in SE 2 mph 5 mph 98% 0 in 33.3 W/m2
08:59 37 °F 37 °F 30.05 in SSE 3 mph 8 mph 97% 0 in 25.8 W/m2
09:04 37 °F 37 °F 30.05 in SSE 4 mph 8 mph 97% 0 in 24.2 W/m2
09:09 38 °F 37 °F 30.05 in SSE 5 mph 12 mph 98% 0 in 21.2 W/m2
09:14 38 °F 37 °F 30.05 in SE 3 mph 12 mph 98% 0 in 27.3 W/m2
09:19 38 °F 37 °F 30.05 in SE 3 mph 7 mph 98% 0.01 in 31.7 W/m2
09:24 38 °F 37 °F 30.05 in SE 1 mph 6 mph 98% 0.01 in 28.7 W/m2
09:29 38 °F 37 °F 30.05 in SE 2 mph 6 mph 98% 0.01 in 44.9 W/m2
09:34 38 °F 37 °F 30.05 in SE 2 mph 5 mph 98% 0.01 in 58.2 W/m2
09:39 38 °F 37 °F 30.05 in SE 1 mph 5 mph 98% 0.01 in 62.2 W/m2
09:44 38 °F 37 °F 30.04 in ESE 1 mph 4 mph 98% 0.01 in 71.8 W/m2
09:49 38 °F 38 °F 30.05 in SE 1 mph 4 mph 98% 0.01 in 87 W/m2
09:54 38 °F 38 °F 30.05 in ESE 1 mph 5 mph 98% 0.01 in 87 W/m2
09:59 38 °F 38 °F 30.05 in SE 1 mph 5 mph 98% 0.01 in 90.3 W/m2
10:04 38 °F 38 °F 30.05 in Calm   2 mph 98% 0.01 in 87.8 W/m2
10:09 39 °F 38 °F 30.05 in SE 1 mph 3 mph 97% 0.01 in 93.9 W/m2
10:14 39 °F 38 °F 30.05 in SE 2 mph 4 mph 97% 0.01 in 101.5 W/m2
10:19 39 °F 38 °F 30.04 in SE 2 mph 5 mph 97% 0.01 in 101.1 W/m2
North Bend WA Weather
Compliments of Weather Underground - 12.6 mb